Location: Unspecified
(22.6800°N, 112.2000°E)
Time: 02:35:52
(UTC+08:00)

S-56A Canister/Altair - Pass Details

Date: 02 August 2021
Orbit: 632 x 2500 km, 38.9° (Epoch: 26 September)

Event Time Altitude Azimuth Distance (km) Brightness Sun altitude
Rises 14:35:30 0° 252° (WSW) 4,968 12.1 61.9°
Reaches altitude 10° 14:38:28 10° 255° (WSW) 4,199 11.9 61.2°
Maximum altitude 14:50:22 62° 335° (NNW) 2,515 11.3 58.5°
Drops below altitude 10° 15:05:23 10° 54° (NE) 5,163 11.6 55.0°
Sets 15:09:31 0° 58° (ENE) 6,135 11.8 54.1°
